Location: Okie-Tex Star Party
(36.8978°N, 102.9520°W)
Time: 15:55:25
(UTC-05:00)

Daily predictions for brighter satellites

Satellite Brightness Start Highest point End
(mag) Time Altitude Azimuth Time Altitude Azimuth Time Altitude Azimuth
Cosmos 1151 Rocket 4.0 21:02:01 10° SE 21:05:32 26° E 21:09:05 10° NNE
Cosmos 1666 Rocket 3.6 21:02:45 10° N 21:07:12 64° E 21:11:35 10° SSE
Sich 1 2.9 21:07:48 10° N 21:12:05 81° E 21:16:21 10° S
Aureole 2 3.9 21:11:33 10° S 21:14:34 65° ESE 21:17:29 10° NNE
Envisat 3.0 21:11:01 10° SSE 21:16:05 80° ENE 21:21:11 10° N
SL-16 R/B 3.4 21:12:22 10° SSE 21:16:25 20° E 21:20:28 10° NE
Cosmos 2341 Rocket 4.1 21:10:46 10° S 21:17:00 62° E 21:23:14 10° NNE
Meteor 2-21 Rocket 4.4 21:11:41 10° S 21:17:47 78° E 21:23:58 10° N
OAO 2 Rocket 4.1 21:14:02 10° W 21:19:00 44° SSW 21:23:27 12° SE
Resurs 1-3 4.1 21:18:07 10° SE 21:22:13 40° ENE 21:26:20 10° N
Cosmos 1408 3.8 21:20:22 10° NNE 21:23:28 25° ENE 21:25:41 15° SE
Cosmos 2251 Rocket 4.1 21:20:40 10° NNW 21:25:58 60° WSW 21:31:12 10° S
USA 186 1.0 21:25:34 16° SSE 21:27:09 49° ENE 21:29:23 10° N
Cosmos 2344 4.5 21:21:32 10° SSE 21:27:12 22° ESE 21:32:54 10° ENE
Cosmos 2056 Rocket 4.1 21:25:51 10° SSE 21:30:43 35° E 21:35:34 10° NE
ERS-2 2.2 21:31:06 10° S 21:34:45 81° WSW 21:38:27 10° NNW
SL-8 Rocket 4.1 21:28:52 10° SSE 21:35:00 55° E 21:41:05 10° NNE
SJ-6B 3.7 21:31:15 10° S 21:35:12 52° W 21:39:05 10° NNW
Cosmos 1633 Rocket 3.3 21:33:00 10° NNW 21:37:20 69° W 21:41:40 10° S
YAOGAN 6 2.5 21:35:27 10° SSE 21:39:01 81° ENE 21:42:41 10° N
Sakura Rocket 4.2 21:35:30 10° WSW 21:39:59 29° S 21:42:06 19° SE
Meteor 2-3 Rocket 3.7 21:35:20 10° N 21:40:58 90° NE 21:46:38 10° S
ATLAS CENTAUR R/B 3.4 21:38:10 10° WSW 21:41:20 28° NW 21:44:39 10° N
Cosmos 1980 3.8 21:35:46 10° SSW 21:41:27 82° WNW 21:47:10 10° NNE
Cosmos 1869 3.7 21:39:39 11° SSE 21:43:13 41° E 21:47:01 10° NNE
Cosmos 1455 3.1 21:40:42 10° SSW 21:44:25 50° W 21:48:11 10° N
Cosmos 2098 Rocket 3.5 21:42:25 10° SSE 21:46:48 38° E 21:50:23 10° NNE
Cosmos 1624 Rocket 4.1 21:42:12 10° S 21:47:13 52° ESE 21:52:16 10° NNE
Cosmos 1515 Rocket 3.5 21:43:23 10° S 21:47:51 89° E 21:52:20 10° N
Cosmos 1939 Rocket 2.8 21:46:00 11° S 21:49:46 81° WSW 21:53:42 10° NNW
Cosmos 405 4.5 21:47:41 10° NNE 21:50:17 20° ENE 21:50:17 20° ENE
Cosmos 1844 Rocket 4.3 21:47:37 10° NW 21:52:36 33° WSW 21:57:33 10° SSW
ATLAS 2AS CENTAUR R/B 3.0 21:47:41 10° NW 21:55:30 78° WSW 22:01:23 16° SSE
Cosmos 2333 Rocket 3.8 21:52:00 10° SW 21:57:12 37° WNW 22:02:25 10° N
CZ-4C R/B 3.8 22:01:07 15° ENE 22:01:07 15° ENE 22:02:26 10° ENE
Spot 2 Rocket 3.4 21:54:44 17° SSE 21:58:42 76° ENE 22:03:47 10° N
Cosmos 2219 Rocket 4.4 21:58:34 10° WSW 22:03:22 28° WNW 22:08:12 10° N
Cosmos 2228 Rocket 3.6 21:59:14 10° SSW 22:03:33 59° W 22:07:54 10° N
Cosmos 864 Rocket 4.4 21:59:21 10° S 22:05:26 69° E 22:11:32 10° NNE
Genesis I 4.3 22:03:10 10° NW 22:07:01 41° WSW 22:09:23 20° S
Cosmos 2237 Rocket 3.1 22:02:50 10° SW 22:08:18 52° WNW 22:13:47 10° NNE
Cosmos 2278 Rocket 2.6 22:15:19 10° NNW 22:20:54 61° WSW 22:24:26 23° S
NOAA 11 4.3 22:18:02 22° S 22:21:43 78° WSW 22:27:14 10° NNW
CZ-4B DEB 4.3 22:22:54 79° SSE 22:23:05 87° ENE 22:26:36 10° N
Cosmos 405 Rocket 3.2 22:23:55 45° ENE 22:23:55 45° ENE 22:27:05 10° NNE
NOSS 3-4 (A) 4.0 22:19:06 10° NNW 22:26:07 60° NE 22:29:14 36° ESE
NOSS 3-4 (C) 4.0 22:19:11 10° NNW 22:26:13 59° NE 22:29:19 36° ESE
ASTRO E2 3.8 22:25:38 10° WSW 22:28:23 31° SSW 22:28:23 31° SSW
Cosmos 1825 3.2 22:26:09 10° NNW 22:29:45 43° W 22:31:18 27° SSW
Resurs 01 Rocket 3.1 22:26:38 12° SSW 22:30:21 33° W 22:34:22 10° NNW
ERS-1 Rocket 3.5 22:29:58 40° E 22:30:21 40° ENE 22:35:01 10° N
Terra 4.0 22:35:47 12° NE 22:35:47 12° NE 22:36:59 10° NE
USA 267 4.4 22:29:14 10° ENE 22:42:01 - SSW 22:31:50 23° ENE
Cosmos 1862 3.6 22:33:28 10° N 22:36:54 54° NE 22:36:54 54° NE
Cosmos 407 Rocket 3.3 22:35:05 10° NNW 22:40:14 87° ENE 22:41:11 60° SSE
Cosmos 1821 Rocket 4.1 22:46:36 51° ESE 22:47:13 53° E 22:53:18 10° NNE
SPOT 1/Viking Rocket 4.4 22:47:57 34° ENE 22:47:57 34° ENE 22:52:16 10° N
Cosmos 1727 Rocket 4.0 22:42:53 10° N 22:49:03 75° W 22:51:38 37° S
MetOp-B 4.0 22:50:21 66° SSE 22:51:06 83° ENE 22:56:29 10° NNW
USA 81 4.0 22:46:49 10° N 22:52:05 79° W 22:53:12 56° SSW
ARGOS 3.1 22:51:59 60° S 22:53:01 83° WSW 22:58:24 10° NNW
H-2A R/B 1.8 22:55:13 80° ESE 22:55:22 81° ENE 23:00:21 10° N
Cosmos 1943 Rocket 4.1 22:55:44 10° NNE 22:58:43 15° NE 22:58:43 15° NE
SL-08 RB Rocket 3.8 23:00:11 72° NNW 23:00:11 72° NNW 23:04:13 10° NNW
SL-16 R/B 3.1 22:54:39 10° SW 23:00:06 48° WNW 23:05:34 10° N
Cosmos 1707 Rocket 3.9 23:02:53 60° NW 23:02:53 60° NW 23:06:40 10° N
Helios 1A 4.1 23:04:21 38° NNE 23:04:21 38° NNE 23:07:06 10° N
Cosmos 676 Rocket 3.9 22:57:43 10° NNW 23:02:53 84° NE 23:02:53 84° NE
SPOT 5 3.7 23:05:31 38° NNE 23:05:31 38° NNE 23:08:34 10° N
Lacrosse 5 3.8 23:01:54 10° NNW 23:05:25 18° NNE 23:06:09 18° NE
Cosmos 1023 Rocket 4.5 23:00:21 10° NNW 23:05:04 71° NNE 23:05:04 71° NNE
Cosmos 1452 Rocket 3.7 23:12:39 61° WSW 23:13:17 67° WNW 23:18:32 10° NNE
Cosmos 1869 Rocket 4.5 23:09:41 10° NNW 23:13:31 44° WNW 23:13:31 44° WNW
Cosmos 1535 Rocket 4.4 23:19:20 79° E 23:19:20 79° E 23:25:43 10° N
Cosmos 1603 4.2 23:28:45 52° NNE 23:28:45 52° NNE 23:32:55 10° NNE
Cosmos 1140 Rocket 4.0 23:23:38 10° NNW 23:27:59 56° WNW 23:27:59 56° WNW
Cosmos 1605 Rocket 4.5 23:39:07 51° NE 23:39:07 51° NE 23:43:58 10° NNE
ATLAS 2A CENTAUR R/B 3.9 23:22:16 10° WSW 23:37:34 46° S 23:37:34 46° S
Cosmos 2369 Rocket 3.2 23:33:12 10° N 23:37:17 37° NNE 23:37:17 37° NNE
Cosmos 2344 4.1 23:33:19 10° SW 23:40:47 57° NW 23:48:54 10° NNE
CZ-4C R/B 2.9 23:46:07 46° WNW 23:46:25 47° NW 23:52:02 10° NNE
